sat.trackr.live / text

‹ back to catalog

STARLINK-31336

NORAD 58944 · 2024-027P

PAYLOAD ACTIVE UNKNOWN

§ Identity

Operator
Country
US
Launch date
2024-02-10
Launch site
AFWTR
Launch vehicle
Mass (kg)
RCS (m²)

Purposes: comms

External: N2YO · Heavens-Above · Gunter

§ Orbital elements

Epoch: 2026-05-25T04:00:46.485216Z

Period
94.11 min
Inclination
53.1615°
Eccentricity
0.0001072
Mean motion
15.30197247 rev/d
Perigee alt
474.5 km
Apogee alt
476.0 km
Semi-major
6,853.4 km
B*
3.9517e-5
RAAN
314.6541°
Arg perigee
83.3374°
Mean anomaly
276.7749°
Rev number
12,902

§ Raw data

STARLINK-313361 58944U 24027P   26145.16720469  .00000811  00000+0  39517-4 0  99962 58944  53.1615 314.6541 0001072  83.3374 276.7749 15.30197247129020

JSON: /api/v1/satellites/58944 · /tle

For live sub-satellite position, see the globe view (requires WebGL).

§ Visibility from observer

Set your observer location to see the next 7 days of passes ≥ 10°. The values pass through the URL so the page stays shareable.

No JS? Fill the form by hand. The geolocation button needs JavaScript.